Wind_Speed
35 38 40 40 42 44 46 52 54 54 49 51 44 44 50 49 44 43 51 52 48 51 58 59 60 58 56 56 52 53 54 51 51 51 51 49 46 47 46 50 55 54 53
36 37 40 40 43 47 51 53 55 52 54 47 43 53 50 51 51 54 53 52 52 57 58 58 57 58 60 59 57 56 56 52 50 49 51 50 47 47 48 46 53 56 54
38 36 38 40 46 50 53 53 54 54 49 45 54 54 51 51 53 53 52 53 58 60 57 60 61 60 60 59 58 58 57 54 54 55 52 51 51 48 47 49 49 57 57
42 43 44 48 50 52 54 58 56 54 51 55 54 51 50 50 52 53 56 58 61 64 63 60 60 63 61 59 53 51 50 48 49 51 53 50 53 52 50 49 48 52 60
50 50 50 48 53 54 56 54 59 57 57 51 49 47 52 52 52 66 69 65 67 66 66 66 64 65 60 57 51 48 46 48 47 51 51 50 50 53 54 53 51 48 56
53 50 53 54 53 55 57 57 54 52 46 46 50 51 52 56 67 71 68 69 70 70 69 66 64 63 59 58 54 46 45 48 50 51 54 56 56 54 56 56 56 52 51
52 50 54 53 55 55 55 55 52 47 47 51 56 58 59 66 72 69 70 70 72 69 70 73 71 68 65 61 56 50 46 45 49 53 55 57 58 58 59 57 58 57 54
52 52 53 54 54 52 49 49 55 60 61 64 65 68 69 74 74 72 74 74 73 73 76 78 75 72 67 62 56 53 49 49 49 51 54 57 59 60 60 59 59 61 59
53 52 57 57 51 49 57 64 65 71 70 70 71 70 72 73 75 78 77 77 73 75 76 75 73 71 69 64 58 55 52 51 51 52 52 54 58 60 60 59 59 60 63
51 55 57 55 58 57 61 67 69 66 64 64 65 71 74 77 77 80 81 81 77 77 78 75 74 73 68 63 59 56 54 51 51 50 51 53 56 58 59 59 59 62 63
59 56 57 59 58 59 61 67 67 64 67 75 76 78 80 80 79 82 83 78 74 75 76 76 75 70 67 63 59 56 55 51 49 50 52 52 53 57 58 60 61 61 64
55 58 59 58 59 61 65 68 70 73 73 77 79 78 78 81 85 83 79 77 75 76 75 75 73 70 64 60 57 54 52 52 52 51 49 49 51 53 55 57 59 59 63
60 59 56 57 60 66 72 71 71 81 81 79 79 78 82 84 84 83 82 79 78 77 74 73 70 66 63 58 55 52 54 54 51 45 43 46 48 49 52 54 58 60 60
61 61 61 65 74 76 70 76 81 81 81 81 81 82 83 82 84 84 82 78 76 72 68 67 64 64 60 55 50 52 53 51 46 43 38 40 43 44 48 50 55 59 61
77 71 70 74 75 76 80 81 79 79 79 84 84 83 82 79 80 81 81 78 73 67 63 61 62 62 57 52 53 51 53 48 45 38 35 34 35 39 43 46 48 54 61
69 69 73 73 77 77 74 76 79 81 81 80 77 79 79 76 77 78 79 75 69 63 59 60 62 56 54 57 56 56 53 47 44 35 32 29 31 34 37 38 41 44 55
68 70 73 74 76 74 75 78 77 78 80 80 82 83 83 77 72 76 74 66 64 63 64 59 57 57 59 60 62 55 51 47 41 34 30 26 27 29 30 34 35 40 49
71 73 77 78 76 74 74 75 75 80 84 85 86 86 80 73 71 70 62 58 58 63 60 58 58 61 63 64 60 48 43 41 37 32 32 24 24 26 25 31 35 37 46
71 74 75 74 73 72 75 80 84 87 91 92 91 84 75 73 67 58 54 53 56 56 55 57 63 62 63 59 53 46 41 37 34 32 30 26 24 25 24 21 31 36 40
72 72 72 74 74 79 83 88 91 92 90 87 80 74 71 68 59 53 49 46 50 49 55 61 60 63 59 52 50 46 43 38 32 32 28 28 26 27 26 23 25 34 40
73 75 75 76 82 86 88 90 89 83 83 76 73 71 67 58 54 46 45 46 46 50 56 57 61 58 55 51 47 45 40 35 32 28 27 28 27 29 27 23 21 30 36
75 75 80 85 88 91 90 81 76 76 72 70 72 69 59 55 49 44 38 34 48 54 54 58 55 55 53 49 47 44 37 32 26 28 26 28 26 29 28 26 22 24 32
79 81 84 88 81 80 74 70 67 69 68 68 63 57 52 47 42 40 37 43 50 51 54 50 51 51 49 49 46 40 31 27 24 24 24 29 30 28 28 28 24 24 29
82 85 81 75 67 65 64 63 64 65 64 55 53 51 45 38 29 35 43 46 49 51 46 48 48 45 45 45 41 34 27 24 22 21 22 26 33 31 29 26 24 22 24
81 68 62 57 58 60 64 63 61 54 48 49 48 42 36 25 31 40 43 48 48 44 44 45 42 39 38 37 34 27 22 20 18 17 20 26 34 36 32 26 21 21 23
62 57 58 58 59 59 61 58 48 47 44 40 36 30 26 28 36 41 45 45 41 41 41 38 35 35 34 32 30 23 19 16 15 15 18 23 25 38 36 34 28 22 20
Wind_Direction
295 295 298 296 298 299 306 307 308 308 307 308 305 310 312 311 304 295 298 300 296 301 307 309 311 310 306 299 291 287 284 277 268 269 272 276 271 263 259 248 243 238 245
292 294 289 292 298 300 302 301 303 305 307 305 302 311 311 308 304 300 298 293 293 300 305 308 308 306 304 302 295 283 281 274 269 267 270 272 274 265 258 251 242 240 234
298 293 286 294 294 298 299 300 301 303 300 299 304 306 304 304 301 298 293 291 297 304 307 307 305 305 306 305 301 288 283 279 267 265 268 271 272 268 260 254 246 238 236
291 291 289 295 295 297 300 302 303 302 298 301 303 302 301 301 299 298 300 303 306 306 303 303 302 305 306 305 301 292 286 280 272 266 264 266 268 269 262 256 251 244 234
285 284 289 293 293 295 297 301 300 299 299 299 299 300 300 298 304 309 312 311 308 307 304 303 304 303 305 304 300 294 284 278 274 268 265 263 264 264 263 256 252 250 239
283 288 289 290 293 296 297 298 297 297 295 297 297 297 296 299 305 313 313 311 308 306 306 307 307 306 306 304 301 293 286 278 275 270 268 264 263 261 259 255 250 248 243
281 283 286 293 295 297 294 294 291 287 289 293 295 298 298 305 311 310 310 309 307 307 307 308 307 308 308 306 302 296 288 281 276 274 270 267 264 262 258 253 247 245 244
282 283 289 291 294 293 292 289 292 295 294 295 298 302 305 307 309 309 308 308 307 307 308 306 306 306 306 304 301 296 291 285 278 274 270 269 266 261 257 252 248 243 242
279 284 287 288 287 287 290 293 292 292 294 297 302 304 305 307 308 309 309 308 306 308 308 307 305 306 305 304 301 297 292 287 281 276 271 268 264 261 257 251 247 245 241
281 284 285 285 283 287 290 294 295 296 299 302 302 302 302 305 307 307 308 307 305 306 309 307 306 306 305 304 301 298 294 287 282 277 274 270 265 259 255 251 246 243 241
285 280 280 279 282 286 287 289 289 291 293 300 300 300 302 303 306 306 307 307 306 307 307 306 306 304 306 304 301 298 294 289 283 278 275 270 260 258 253 250 246 242 240
278 277 279 282 282 285 288 289 291 295 297 298 298 300 302 304 306 307 307 307 307 308 307 306 305 304 304 302 300 298 293 289 284 279 272 263 260 257 251 248 246 242 238
276 277 275 275 281 286 286 288 292 296 297 297 298 300 303 305 307 306 306 307 306 307 307 304 303 303 303 302 300 297 293 288 284 279 271 265 261 255 247 243 241 241 237
276 277 279 279 281 285 284 288 292 294 297 299 303 303 305 306 307 305 306 306 306 306 305 302 302 301 301 301 299 296 293 291 285 279 272 265 259 251 245 240 235 236 235
283 285 279 280 282 285 288 292 293 295 298 300 303 303 304 306 306 306 305 309 308 306 302 300 300 300 301 302 302 299 296 290 285 280 272 264 259 253 240 238 231 234 232
282 278 279 281 285 288 292 292 295 297 298 301 304 304 306 307 305 305 308 308 306 304 300 299 300 301 304 309 305 303 298 293 288 284 278 264 254 249 241 234 228 229 230
278 278 280 284 288 291 293 295 297 297 298 301 304 306 306 307 306 307 306 304 305 298 299 303 303 305 308 308 306 301 298 294 289 283 278 271 257 248 241 235 228 226 226
279 281 284 288 291 292 295 296 297 298 300 303 305 305 305 305 306 306 304 302 298 298 306 301 301 307 307 306 302 304 300 297 295 282 274 266 254 252 245 237 230 225 223
280 282 286 290 291 294 295 295 297 298 299 301 302 302 303 304 307 302 299 294 292 300 296 294 300 303 305 304 309 308 302 298 292 283 269 261 243 247 248 244 228 222 223
280 283 287 290 292 294 295 297 297 298 299 299 300 300 302 307 304 295 291 291 289 289 292 296 300 305 305 311 310 307 304 299 289 278 264 253 236 234 244 246 232 222 216
282 285 289 289 290 294 295 296 296 296 296 297 299 302 306 303 296 291 287 289 283 287 297 303 304 305 309 309 306 302 299 294 286 269 257 242 232 230 237 247 243 222 219
283 284 288 292 292 292 293 291 294 293 295 298 299 303 301 296 294 290 289 276 286 295 301 304 306 308 309 307 307 306 298 290 284 268 255 240 225 224 231 233 237 228 219
283 286 290 291 291 290 289 292 293 293 295 297 303 298 295 295 291 293 283 285 292 301 305 305 307 308 307 309 309 305 297 288 277 266 257 234 223 218 223 224 226 234 222
283 287 288 288 288 289 290 290 291 292 297 302 294 292 293 295 297 280 288 296 302 303 305 308 308 308 310 311 308 304 293 286 274 259 253 232 219 221 218 219 222 229 228
281 282 285 289 288 288 289 291 294 301 299 292 287 290 290 286 280 285 293 296 300 305 309 309 308 310 305 310 313 312 299 288 273 252 240 223 218 219 219 220 224 217 229
277 280 284 286 287 287 287 294 303 299 291 286 287 288 286 279 276 288 294 298 304 311 310 307 307 301 306 312 317 316 309 289 273 253 235 223 219 219 219 222 223 215 225
Height
10939 10936 10935 10933 10932 10931 10931 10930 10929 10928 10927 10926 10924 10923 10921 10919 10917 10914 10911 10907 10903 10900 10897 10893 10890 10887 10884 10883 10882 10879 10877 10875 10875 10876 10876 10876 10876 10876 10877 10879 10884 10888 10890
10934 10933 10931 10930 10927 10924 10924 10924 10922 10921 10920 10919 10917 10916 10914 10912 10909 10907 10904 10900 10897 10894 10890 10886 10881 10876 10872 10869 10868 10867 10865 10866 10865 10865 10864 10864 10865 10865 10866 10869 10872 10876 10881
10930 10928 10926 10926 10923 10919 10917 10916 10916 10915 10913 10912 10911 10908 10906 10903 10902 10899 10895 10893 10890 10886 10883 10879 10874 10867 10862 10858 10853 10850 10850 10852 10853 10853 10852 10851 10853 10854 10856 10859 10862 10866 10871
10925 10922 10921 10921 10916 10914 10911 10909 10907 10907 10905 10903 10901 10900 10898 10895 10892 10889 10888 10883 10879 10875 10870 10867 10864 10859 10852 10845 10841 10839 10836 10838 10839 10840 10841 10841 10841 10842 10845 10848 10852 10856 10861
10917 10916 10914 10913 10911 10908 10904 10902 10899 10897 10896 10894 10893 10890 10888 10884 10881 10879 10875 10869 10864 10860 10856 10853 10850 10845 10840 10835 10830 10827 10826 10825 10825 10826 10827 10827 10828 10828 10832 10837 10841 10844 10849
10909 10908 10905 10905 10904 10900 10897 10895 10892 10890 10888 10886 10885 10882 10878 10875 10871 10866 10860 10854 10848 10844 10840 10837 10834 10830 10826 10822 10819 10816 10814 10813 10812 10812 10812 10813 10815 10817 10819 10824 10829 10832 10838
10902 10898 10896 10896 10894 10891 10889 10886 10884 10882 10881 10880 10876 10873 10870 10865 10861 10855 10850 10844 10838 10831 10825 10822 10818 10815 10811 10808 10805 10803 10801 10801 10799 10797 10797 10799 10800 10803 10805 10810 10815 10820 10825
10893 10890 10888 10888 10886 10882 10879 10876 10874 10873 10872 10869 10867 10865 10861 10857 10850 10845 10840 10834 10829 10822 10813 10808 10804 10801 10797 10795 10792 10790 10787 10786 10784 10782 10782 10782 10783 10785 10789 10794 10800 10807 10813
10888 10884 10882 10880 10878 10876 10872 10868 10863 10861 10862 10859 10855 10851 10848 10845 10839 10833 10829 10822 10815 10810 10803 10795 10790 10786 10781 10779 10776 10775 10773 10770 10768 10765 10766 10766 10766 10767 10772 10778 10785 10790 10797
10880 10877 10872 10871 10871 10868 10865 10857 10851 10844 10846 10845 10844 10840 10836 10835 10829 10821 10816 10810 10803 10797 10790 10783 10778 10772 10767 10764 10761 10758 10756 10754 10753 10750 10748 10750 10749 10751 10755 10761 10768 10774 10781
10872 10869 10866 10865 10864 10863 10860 10854 10847 10844 10839 10840 10834 10830 10825 10820 10815 10810 10803 10796 10789 10783 10777 10769 10764 10758 10754 10750 10746 10743 10740 10738 10737 10735 10732 10732 10733 10733 10738 10744 10750 10758 10765
10862 10860 10858 10856 10856 10852 10849 10845 10839 10836 10833 10832 10826 10822 10814 10807 10802 10795 10787 10781 10775 10768 10762 10754 10748 10743 10741 10737 10733 10728 10725 10722 10720 10719 10717 10715 10717 10718 10722 10728 10734 10742 10750
10850 10849 10849 10848 10847 10843 10840 10835 10830 10823 10822 10818 10814 10809 10805 10796 10787 10777 10773 10768 10760 10754 10747 10739 10733 10729 10727 10724 10720 10715 10711 10706 10705 10703 10702 10701 10702 10705 10708 10714 10720 10727 10736
10839 10841 10843 10841 10837 10833 10830 10825 10821 10812 10811 10804 10799 10796 10792 10784 10770 10761 10756 10753 10746 10740 10731 10725 10721 10717 10714 10711 10708 10702 10696 10692 10689 10688 10688 10688 10688 10690 10695 10700 10707 10713 10722
10832 10832 10831 10828 10824 10821 10819 10813 10805 10801 10797 10792 10788 10782 10778 10773 10758 10747 10741 10735 10729 10725 10717 10713 10709 10704 10701 10699 10694 10688 10682 10679 10675 10674 10674 10675 10676 10677 10682 10688 10696 10700 10708
10821 10818 10816 10816 10813 10811 10806 10799 10794 10788 10783 10780 10776 10768 10764 10759 10748 10736 10726 10721 10714 10710 10704 10700 10697 10692 10688 10684 10679 10673 10667 10663 10659 10660 10661 10662 10665 10666 10670 10677 10685 10689 10697
10804 10804 10804 10804 10802 10800 10794 10786 10781 10775 10769 10767 10761 10755 10747 10744 10736 10725 10717 10710 10702 10695 10693 10689 10685 10680 10675 10670 10664 10660 10653 10648 10647 10647 10649 10652 10653 10656 10661 10667 10674 10678 10686
10792 10792 10791 10788 10788 10785 10781 10773 10768 10762 10757 10752 10746 10739 10734 10731 10726 10716 10706 10700 10692 10684 10680 10678 10675 10670 10664 10657 10650 10645 10639 10636 10635 10636 10638 10642 10645 10648 10653 10659 10664 10671 10676
10782 10781 10781 10779 10776 10772 10767 10761 10756 10750 10743 10738 10732 10726 10721 10717 10714 10705 10697 10690 10683 10677 10674 10670 10666 10661 10653 10645 10634 10630 10627 10626 10625 10626 10629 10633 10638 10641 10645 10652 10657 10663 10669
10771 10770 10769 10766 10763 10759 10754 10748 10741 10736 10729 10723 10717 10713 10709 10705 10700 10693 10687 10682 10675 10672 10667 10664 10656 10649 10640 10632 10625 10619 10616 10615 10616 10616 10620 10625 10630 10635 10639 10645 10649 10655 10660
10760 10758 10756 10755 10751 10747 10741 10734 10727 10722 10715 10709 10702 10701 10697 10694 10689 10684 10679 10675 10669 10663 10659 10652 10645 10637 10628 10622 10617 10613 10609 10606 10605 10607 10610 10616 10622 10630 10634 10638 10643 10648 10654
10748 10748 10745 10741 10739 10733 10726 10719 10716 10707 10702 10696 10691 10689 10686 10681 10679 10676 10676 10668 10662 10655 10649 10641 10633 10626 10618 10613 10609 10603 10600 10598 10597 10596 10600 10606 10616 10622 10628 10633 10637 10641 10647
10735 10733 10733 10727 10724 10718 10711 10706 10701 10694 10691 10687 10683 10677 10674 10673 10669 10666 10661 10659 10654 10646 10639 10631 10624 10617 10610 10604 10598 10594 10591 10589 10588 10589 10592 10597 10606 10616 10622 10627 10632 10636 10641
10721 10723 10720 10716 10708 10701 10696 10694 10691 10686 10682 10677 10671 10667 10666 10665 10662 10658 10653 10647 10641 10636 10630 10623 10615 10609 10603 10597 10591 10586 10583 10581 10581 10582 10585 10589 10598 10608 10616 10621 10627 10631 10635
10710 10710 10707 10702 10696 10691 10687 10682 10681 10677 10673 10666 10661 10659 10659 10657 10651 10647 10644 10640 10635 10628 10621 10614 10608 10603 10598 10592 10586 10581 10577 10574 10574 10575 10578 10583 10591 10600 10609 10616 10622 10627 10630
10697 10698 10695 10690 10685 10681 10677 10675 10671 10666 10662 10657 10653 10653 10651 10647 10645 10641 10637 10632 10626 10619 10614 10609 10605 10600 10593 10587 10582 10576 10572 10570 10570 10571 10573 10578 10584 10594 10602 10610 10617 10623 10627